Climatologie pour Saint-Brevin les Pins
Jour • Résumé pour avril 24, 2017 Système :  Métrique    Anglais   Mixte
« - 1 jour
+ 1 jour »
Jour Semaine Mois Année Personnalisé
  Maximum : Minimum : Moyenne :
Température sous abri : -17.8 °C -16.2 °C -11.7 °C
Point de rosée : -17.8 °C -16.7 °C -14.7 °C
Humidité : Humidity % 41 % 72 %
Vitesse du vent : 0 km/h 0 km/h 6.1 km/h
Rafale : 0 km/h - -
Direction :- - SE
Pression : 0 hPa 34313.7 hPa -
Précipitations : 0 mm    
Historical Graphs
 
 
Tableau de données pour avril 24, 2017
Heure Tempé Pt rosée Pression Vent Vitesse Rafale Humidité Taux pluie (/hr) Soleil
-17.8 °C -17.8 °C 0 hPa Calm     Humidity % 0 mm SolarRadiationWatts/m^2 W/m2 Conditions
00:00 -12.7 °C -15.4 °C 34577.8 hPa East 5.1 km/h 7.7 km/h 71 % 0 mm 0 W/m2
00:10 -12.6 °C -15.4 °C 34577.8 hPa East 2.6 km/h 7.7 km/h 71 % 0 mm 0 W/m2
00:15 -12.7 °C -15.4 °C 34577.8 hPa East 12.9 km/h 12.9 km/h 71 % 0 mm 0 W/m2
00:20 -12.7 °C -15.4 °C 34577.8 hPa ESE 5.1 km/h 12.9 km/h 71 % 0 mm 0 W/m2
00:25 -12.6 °C -15.5 °C 34577.8 hPa East 5.1 km/h 12.9 km/h 70 % 0 mm 0 W/m2
00:30 -12.7 °C -15.6 °C 34577.8 hPa East 7.7 km/h 12.9 km/h 70 % 0 mm 0 W/m2
00:35 -12.6 °C -15.5 °C 34577.8 hPa Calm   12.9 km/h 70 % 0 mm 0 W/m2
00:45 -12.6 °C -15.5 °C 34577.8 hPa ESE 7.7 km/h 15.6 km/h 70 % 0 mm 0 W/m2
00:50 -12.7 °C -15.6 °C 34567.7 hPa Calm   12.9 km/h 70 % 0 mm 0 W/m2
00:55 -12.9 °C -15.7 °C 34577.8 hPa Calm   7.7 km/h 71 % 0 mm 0 W/m2
01:00 -13.1 °C -15.7 °C 34567.7 hPa Calm   7.7 km/h 72 % 0 mm 0 W/m2
01:10 -13.6 °C -15.8 °C 34577.8 hPa Calm   5.1 km/h 75 % 0 mm 0 W/m2
01:15 -13.8 °C -15.8 °C 34577.8 hPa Calm   2.6 km/h 77 % 0 mm 0 W/m2
01:20 -13.9 °C -15.8 °C 34567.7 hPa Calm     79 % 0 mm 0 W/m2
01:25 -14.2 °C -15.8 °C 34567.7 hPa Calm     81 % 0 mm 0 W/m2
01:30 -14.3 °C -15.9 °C 34567.7 hPa Calm   2.6 km/h 82 % 0 mm 0 W/m2
01:35 -14.5 °C -15.9 °C 34567.7 hPa Calm   2.6 km/h 84 % 0 mm 0 W/m2
01:40 -14.6 °C -15.9 °C 34567.7 hPa Calm   2.6 km/h 85 % 0 mm 0 W/m2
01:45 -14.6 °C -15.9 °C 34567.7 hPa Calm   2.6 km/h 85 % 0 mm 0 W/m2
01:50 -14.7 °C -16 °C 34567.7 hPa Calm   7.7 km/h 85 % 0 mm 0 W/m2
01:55 -14.7 °C -16 °C 34567.7 hPa Calm   7.7 km/h 85 % 0 mm 0 W/m2
02:00 -14.8 °C -15.9 °C 34567.7 hPa Calm   5.1 km/h 86 % 0 mm 0 W/m2
02:05 -14.8 °C -16 °C 34567.7 hPa NE 2.6 km/h 7.7 km/h 86 % 0 mm 0 W/m2
02:10 -14.8 °C -15.9 °C 34567.7 hPa Calm   7.7 km/h 87 % 0 mm 0 W/m2
02:15 -14.8 °C -15.9 °C 34554.1 hPa Calm   7.7 km/h 87 % 0 mm 0 W/m2
02:20 -14.9 °C -15.9 °C 34567.7 hPa NNE 2.6 km/h 7.7 km/h 88 % 0 mm 0 W/m2
02:25 -14.9 °C -15.9 °C 34554.1 hPa Calm   12.9 km/h 88 % 0 mm 0 W/m2
02:30 -14.9 °C -15.9 °C 34554.1 hPa North 2.6 km/h 12.9 km/h 88 % 0 mm 0 W/m2
02:35 -14.9 °C -16 °C 34554.1 hPa Calm   7.7 km/h 88 % 0 mm 0 W/m2
02:40 -14.9 °C -15.9 °C 34554.1 hPa Calm   12.9 km/h 89 % 0 mm 0 W/m2
02:45 -14.9 °C -16 °C 34554.1 hPa NE 2.6 km/h 12.9 km/h 88 % 0 mm 0 W/m2
02:50 -15 °C -15.9 °C 34554.1 hPa Calm   5.1 km/h 89 % 0 mm 0 W/m2
02:55 -15 °C -15.9 °C 34554.1 hPa ENE 2.6 km/h 7.7 km/h 89 % 0 mm 0 W/m2
03:00 -14.9 °C -15.9 °C 34554.1 hPa Calm   10.3 km/h 89 % 0 mm 0 W/m2
03:05 -15 °C -15.9 °C 34544 hPa Calm   10.3 km/h 89 % 0 mm 0 W/m2
03:10 -15.1 °C -16 °C 34544 hPa Calm   7.7 km/h 89 % 0 mm 0 W/m2
03:15 -15.1 °C -16 °C 34544 hPa Calm   7.7 km/h 89 % 0 mm 0 W/m2
03:20 -15.1 °C -15.9 °C 34544 hPa Calm   7.7 km/h 89 % 0 mm 0 W/m2
03:25 -15.1 °C -16 °C 34544 hPa NE 2.6 km/h 5.1 km/h 89 % 0 mm 0 W/m2
03:30 -15.2 °C -16.1 °C 34544 hPa Calm   5.1 km/h 89 % 0 mm 0 W/m2
03:35 -15.2 °C -16 °C 34533.8 hPa Calm   5.1 km/h 90 % 0 mm 0 W/m2
03:40 -15.2 °C -16.1 °C 34533.8 hPa Calm   5.1 km/h 90 % 0 mm 0 W/m2
03:45 -15.2 °C -16.1 °C 34533.8 hPa Calm   5.1 km/h 90 % 0 mm 0 W/m2
03:50 -15.3 °C -16.2 °C 34533.8 hPa NE 2.6 km/h 5.1 km/h 90 % 0 mm 0 W/m2
03:55 -15.4 °C -16.2 °C 34533.8 hPa Calm   5.1 km/h 90 % 0 mm 0 W/m2
04:00 -15.4 °C -16.1 °C 34533.8 hPa Calm   5.1 km/h 91 % 0 mm 0 W/m2
04:05 -15.4 °C -16.2 °C 34533.8 hPa Calm   2.6 km/h 91 % 0 mm 0 W/m2
04:10 -15.4 °C -16.2 °C 34520.3 hPa Calm   2.6 km/h 91 % 0 mm 0 W/m2
04:15 -15.5 °C -16.2 °C 34533.8 hPa Calm   2.6 km/h 91 % 0 mm 0 W/m2
04:20 -15.5 °C -16.2 °C 34520.3 hPa Calm   2.6 km/h 91 % 0 mm 0 W/m2
04:30 -15.7 °C -16.4 °C 34520.3 hPa Calm   2.6 km/h 91 % 0 mm 0 W/m2
04:35 -15.7 °C -16.4 °C 34520.3 hPa NNE 5.1 km/h 5.1 km/h 92 % 0 mm 0 W/m2
04:40 -15.7 °C -16.4 °C 34520.3 hPa Calm   5.1 km/h 92 % 0 mm 0 W/m2
04:45 -15.7 °C -16.4 °C 34520.3 hPa Calm   7.7 km/h 92 % 0 mm 0 W/m2
04:50 -15.7 °C -16.4 °C 34520.3 hPa Calm   7.7 km/h 92 % 0 mm 0 W/m2
04:55 -15.7 °C -16.4 °C 34520.3 hPa NE 5.1 km/h 10.3 km/h 92 % 0 mm 0 W/m2
05:00 -15.7 °C -16.3 °C 34520.3 hPa NE 2.6 km/h 10.3 km/h 92 % 0 mm 0 W/m2
05:05 -15.6 °C -16.3 °C 34520.3 hPa Calm   7.7 km/h 92 % 0 mm 0 W/m2
05:10 -15.6 °C -16.3 °C 34520.3 hPa Calm   7.7 km/h 92 % 0 mm 0 W/m2
05:15 -15.6 °C -16.2 °C 34510.1 hPa NE 5.1 km/h 5.1 km/h 92 % 0 mm 0 W/m2
05:20 -15.6 °C -16.3 °C 34510.1 hPa Calm   5.1 km/h 92 % 0 mm 0 W/m2
05:25 -15.6 °C -16.3 °C 34510.1 hPa Calm   5.1 km/h 92 % 0 mm 0 W/m2
05:30 -15.7 °C -16.3 °C 34510.1 hPa Calm   2.6 km/h 92 % 0 mm 0 W/m2
05:35 -15.7 °C -16.4 °C 34510.1 hPa Calm   5.1 km/h 92 % 0 mm 0 W/m2
05:40 -15.8 °C -16.4 °C 34510.1 hPa NE 2.6 km/h 7.7 km/h 92 % 0 mm 0 W/m2
05:45 -15.8 °C -16.4 °C 34510.1 hPa NE 2.6 km/h 7.7 km/h 92 % 0 mm 0 W/m2
05:50 -15.8 °C -16.4 °C 34510.1 hPa Calm   5.1 km/h 93 % 0 mm 0 W/m2
05:55 -15.8 °C -16.4 °C 34510.1 hPa Calm   5.1 km/h 93 % 0 mm 0 W/m2
06:00 -15.8 °C -16.4 °C 34496.6 hPa Calm   5.1 km/h 93 % 0 mm 0 W/m2
06:05 -15.9 °C -16.4 °C 34496.6 hPa Calm   2.6 km/h 93 % 0 mm 0 W/m2
06:10 -15.9 °C -16.4 °C 34496.6 hPa Calm   2.6 km/h 93 % 0 mm 0 W/m2
06:15 -15.9 °C -16.4 °C 34496.6 hPa Calm   5.1 km/h 93 % 0 mm 0 W/m2
06:20 -15.9 °C -16.4 °C 34496.6 hPa Calm   5.1 km/h 93 % 0 mm 0 W/m2
06:25 -15.9 °C -16.4 °C 34496.6 hPa Calm   2.6 km/h 94 % 0 mm 0 W/m2
06:30 -15.9 °C -16.4 °C 34496.6 hPa Calm   2.6 km/h 94 % 0 mm 0 W/m2
06:35 -16 °C -16.5 °C 34496.6 hPa Calm   2.6 km/h 94 % 0 mm 0 W/m2
06:40 -16.1 °C -16.6 °C 34496.6 hPa Calm   2.6 km/h 94 % 0 mm 0 W/m2
06:45 -16.1 °C -16.6 °C 34496.6 hPa NE 2.6 km/h 2.6 km/h 94 % 0 mm 0 W/m2
06:50 -16.2 °C -16.6 °C 34496.6 hPa Calm   2.6 km/h 94 % 0 mm 0 W/m2
06:55 -16.2 °C -16.7 °C 34496.6 hPa Calm   2.6 km/h 94 % 0 mm 0 W/m2
07:00 -16.2 °C -16.7 °C 34496.6 hPa Calm   7.7 km/h 94 % 0 mm 0 W/m2
07:05 -16.2 °C -16.6 °C 34496.6 hPa NE 2.6 km/h 7.7 km/h 94 % 0 mm 0 W/m2
07:10 -16.2 °C -16.7 °C 34496.6 hPa Calm   2.6 km/h 94 % 0 mm 5 W/m2
07:15 -16.2 °C -16.6 °C 34496.6 hPa Calm     94 % 0 mm 9 W/m2
07:20 -16.2 °C -16.6 °C 34496.6 hPa Calm     94 % 0 mm 11 W/m2
07:25 -16.2 °C -16.6 °C 34496.6 hPa Calm     94 % 0 mm 12 W/m2
07:30 -16.2 °C -16.7 °C 34510.1 hPa Calm     94 % 0 mm 14 W/m2
07:35 -16.2 °C -16.6 °C 34510.1 hPa Calm   5.1 km/h 95 % 0 mm 19 W/m2
07:40 -16.2 °C -16.6 °C 34510.1 hPa NE 2.6 km/h 5.1 km/h 94 % 0 mm 23 W/m2
07:45 -16 °C -16.4 °C 34510.1 hPa NE 2.6 km/h 5.1 km/h 95 % 0 mm 25 W/m2
07:50 -15.9 °C -16.3 °C 34496.6 hPa NE 2.6 km/h 7.7 km/h 95 % 0 mm 26 W/m2
07:55 -15.8 °C -16.2 °C 34510.1 hPa Calm   7.7 km/h 95 % 0 mm 30 W/m2
08:00 -15.6 °C -16 °C 34496.6 hPa Calm   7.7 km/h 95 % 0 mm 33 W/m2
08:05 -15.4 °C -15.9 °C 34510.1 hPa NNE 2.6 km/h 7.7 km/h 95 % 0 mm 37 W/m2
08:10 -15.2 °C -15.7 °C 34496.6 hPa Calm   7.7 km/h 95 % 0 mm 39 W/m2
08:15 -15.1 °C -15.4 °C 34510.1 hPa NNE 5.1 km/h 7.7 km/h 95 % 0 mm 42 W/m2
08:20 -14.9 °C -15.4 °C 34510.1 hPa NNE 2.6 km/h 7.7 km/h 94 % 0 mm 44 W/m2
08:25 -14.7 °C -15.2 °C 34496.6 hPa NNE 2.6 km/h 10.3 km/h 94 % 0 mm 47 W/m2
08:30 -14.5 °C -15.2 °C 34510.1 hPa NE 7.7 km/h 10.3 km/h 92 % 0 mm 186 W/m2
08:35 -14.2 °C -14.9 °C 34510.1 hPa NE 7.7 km/h 10.3 km/h 92 % 0 mm 204 W/m2
08:40 -14 °C -14.9 °C 34510.1 hPa NNE 5.1 km/h 10.3 km/h 89 % 0 mm 221 W/m2
08:45 -13.8 °C -14.9 °C 34510.1 hPa NNE 7.7 km/h 15.6 km/h 88 % 0 mm 239 W/m2
08:50 -13.7 °C -14.8 °C 34510.1 hPa Calm   15.6 km/h 86 % 0 mm 258 W/m2
08:55 -13.4 °C -14.8 °C 34510.1 hPa NNE 7.7 km/h 15.6 km/h 85 % 0 mm 274 W/m2
09:00 -13.3 °C -14.9 °C 34510.1 hPa Calm   18.2 km/h 82 % 0 mm 292 W/m2
09:05 -13.2 °C -14.8 °C 34510.1 hPa Calm   18.2 km/h 81 % 0 mm 308 W/m2
09:10 -13 °C -14.8 °C 34510.1 hPa NE 5.1 km/h 12.9 km/h 80 % 0 mm 313 W/m2
09:15 -12.8 °C -14.6 °C 34510.1 hPa ENE 5.1 km/h 12.9 km/h 80 % 0 mm 315 W/m2
09:20 -12.6 °C -14.6 °C 34510.1 hPa NE 2.6 km/h 12.9 km/h 78 % 0 mm 329 W/m2
09:25 -12.4 °C -14.4 °C 34510.1 hPa Calm   18.2 km/h 78 % 0 mm 352 W/m2
09:30 -12.3 °C -14.6 °C 34510.1 hPa ENE 10.3 km/h 18.2 km/h 76 % 0 mm 410 W/m2
09:35 -12.2 °C -14.4 °C 34510.1 hPa Calm   15.6 km/h 76 % 0 mm 422 W/m2
09:40 -12.1 °C -14.5 °C 34510.1 hPa North 2.6 km/h 12.9 km/h 74 % 0 mm 410 W/m2
09:45 -12.1 °C -14.7 °C 34510.1 hPa Calm   18.2 km/h 73 % 0 mm 332 W/m2
09:50 -12.1 °C -14.7 °C 34510.1 hPa NE 2.6 km/h 18.2 km/h 73 % 0 mm 271 W/m2
09:55 -12.1 °C -14.4 °C 34510.1 hPa North 7.7 km/h 15.6 km/h 75 % 0 mm 294 W/m2
10:00 -12 °C -14.4 °C 34510.1 hPa Calm   18.2 km/h 74 % 0 mm 383 W/m2
10:05 -11.8 °C -14.3 °C 34496.6 hPa North 5.1 km/h 18.2 km/h 74 % 0 mm 345 W/m2
10:10 -11.7 °C -14.2 °C 34496.6 hPa North 5.1 km/h 18.2 km/h 74 % 0 mm 394 W/m2
10:15 -11.6 °C -14.2 °C 34496.6 hPa NE 12.9 km/h 20.8 km/h 73 % 0 mm 524 W/m2
10:20 -11.4 °C -14.3 °C 34496.6 hPa ENE 5.1 km/h 20.8 km/h 70 % 0 mm 480 W/m2
10:25 -11.3 °C -14.1 °C 34496.6 hPa ENE 18.2 km/h 18.2 km/h 71 % 0 mm 496 W/m2
10:30 -11.2 °C -14.3 °C 34496.6 hPa North 10.3 km/h 18.2 km/h 69 % 0 mm 420 W/m2
10:35 -11.3 °C -14.4 °C 34496.6 hPa NE 10.3 km/h 20.8 km/h 68 % 0 mm 401 W/m2
10:40 -11.2 °C -14.4 °C 34496.6 hPa North 5.1 km/h 20.8 km/h 68 % 0 mm 399 W/m2
10:45 -11.1 °C -14.1 °C 34496.6 hPa NNE 7.7 km/h 20.8 km/h 69 % 0 mm 573 W/m2
10:50 -10.7 °C -14 °C 34496.6 hPa Calm   20.8 km/h 67 % 0 mm 591 W/m2
10:55 -10.5 °C -14.2 °C 34496.6 hPa NE 7.7 km/h 20.8 km/h 64 % 0 mm 594 W/m2
11:00 -10.5 °C -14.2 °C 34496.6 hPa ENE 5.1 km/h 18.2 km/h 64 % 0 mm 628 W/m2
11:05 -10.4 °C -14 °C 34496.6 hPa NNW 5.1 km/h 18.2 km/h 65 % 0 mm 610 W/m2
11:10 -10.2 °C -14.3 °C 34496.6 hPa Calm   23.3 km/h 61 % 0 mm 571 W/m2
11:15 -10.1 °C -13.8 °C 34496.6 hPa NW 5.1 km/h 23.3 km/h 64 % 0 mm 656 W/m2
11:20 -9.9 °C -14.2 °C 34486.4 hPa East 15.6 km/h 20.8 km/h 60 % 0 mm 708 W/m2
11:25 -9.8 °C -14.2 °C 34486.4 hPa NE 5.1 km/h 25.9 km/h 59 % 0 mm 747 W/m2
11:30 -9.8 °C -14.1 °C 34486.4 hPa NE 7.7 km/h 28.5 km/h 60 % 0 mm 765 W/m2
11:35 -9.6 °C -14.1 °C 34486.4 hPa ENE 7.7 km/h 28.5 km/h 58 % 0 mm 693 W/m2
11:40 -9.6 °C -14.4 °C 34486.4 hPa NE 15.6 km/h 23.3 km/h 56 % 0 mm 359 W/m2
11:45 -9.9 °C -14.4 °C 34486.4 hPa NNE 12.9 km/h 23.3 km/h 58 % 0 mm 529 W/m2
11:50 -9.9 °C -14.6 °C 34486.4 hPa ENE 7.7 km/h 25.9 km/h 57 % 0 mm 710 W/m2
11:55 -9.6 °C -13.9 °C 34476.3 hPa NE 7.7 km/h 25.9 km/h 60 % 0 mm 513 W/m2
12:00 -9.2 °C -14.2 °C 34476.3 hPa NE 12.9 km/h 25.9 km/h 55 % 0 mm 773 W/m2
12:05 -9.3 °C -14.5 °C 34476.3 hPa North 12.9 km/h 25.9 km/h 54 % 0 mm 782 W/m2
12:10 -9.1 °C -13.7 °C 34476.3 hPa NE 15.6 km/h 23.3 km/h 58 % 0 mm 802 W/m2
12:15 -8.9 °C -14.4 °C 34476.3 hPa NNE 5.1 km/h 25.9 km/h 52 % 0 mm 824 W/m2
12:20 -8.7 °C -14.2 °C 34476.3 hPa NNE 12.9 km/h 31.1 km/h 52 % 0 mm 780 W/m2
12:25 -8.9 °C -14.3 °C 34476.3 hPa NNW 12.9 km/h 31.1 km/h 53 % 0 mm 624 W/m2
12:30 -8.8 °C -13.7 °C 34462.7 hPa NE 23.3 km/h 31.1 km/h 56 % 0 mm 851 W/m2
12:35 -9.1 °C -14.2 °C 34462.7 hPa North 15.6 km/h 28.5 km/h 54 % 0 mm 359 W/m2
12:40 -8.9 °C -13.9 °C 34462.7 hPa NE 12.9 km/h 33.6 km/h 55 % 0 mm 791 W/m2
12:45 -8.8 °C -14.3 °C 34462.7 hPa ENE 18.2 km/h 33.6 km/h 52 % 0 mm 626 W/m2
12:50 -8.8 °C -13.9 °C 34462.7 hPa NE 20.8 km/h 33.6 km/h 54 % 0 mm 649 W/m2
12:55 -8.4 °C -13.8 °C 34452.6 hPa NE 12.9 km/h 31.1 km/h 53 % 0 mm 893 W/m2
13:00 -8.4 °C -14.1 °C 34452.6 hPa ENE 20.8 km/h 31.1 km/h 51 % 0 mm 840 W/m2
13:05 -8.4 °C -13.8 °C 34452.6 hPa North 5.1 km/h 28.5 km/h 53 % 0 mm 847 W/m2
13:10 -8.4 °C -14.1 °C 34452.6 hPa NE 7.7 km/h 36.2 km/h 51 % 0 mm 895 W/m2
13:15 -8.4 °C -14.3 °C 34452.6 hPa NNE 10.3 km/h 36.2 km/h 50 % 0 mm 928 W/m2
13:20 -8.2 °C -13.6 °C 34442.4 hPa NE 10.3 km/h 33.6 km/h 53 % 0 mm 937 W/m2
13:25 -8.3 °C -14.7 °C 34442.4 hPa SE 5.1 km/h 33.6 km/h 47 % 0 mm 956 W/m2
13:30 -8 °C -13.8 °C 34442.4 hPa NE 12.9 km/h 33.6 km/h 50 % 0 mm 953 W/m2
13:40 -8.6 °C -14.1 °C 34428.8 hPa ENE 15.6 km/h 25.9 km/h 52 % 0 mm 930 W/m2
13:45 -8 °C -13.6 °C 34428.8 hPa East 20.8 km/h 25.9 km/h 52 % 0 mm 756 W/m2
13:50 -7.9 °C -14.1 °C 34428.8 hPa NNE 5.1 km/h 25.9 km/h 48 % 0 mm 930 W/m2
13:55 -7.7 °C -13.7 °C 34428.8 hPa NE 23.3 km/h 28.5 km/h 49 % 0 mm 914 W/m2
14:00 -7.9 °C -14.1 °C 34428.8 hPa ENE 12.9 km/h 36.2 km/h 48 % 0 mm 888 W/m2
14:05 -8 °C -14.4 °C 34418.7 hPa ENE 20.8 km/h 36.2 km/h 47 % 0 mm 944 W/m2
14:10 -8 °C -14.4 °C 34418.7 hPa NE 36.2 km/h 36.2 km/h 47 % 0 mm 591 W/m2
14:15 -7.9 °C -13.8 °C 34418.7 hPa ENE 20.8 km/h 44.1 km/h 50 % 0 mm 853 W/m2
14:20 -8.2 °C -14 °C 34418.7 hPa NE 18.2 km/h 44.1 km/h 50 % 0 mm 468 W/m2
14:25 -8.2 °C -14.9 °C 34418.7 hPa NE 12.9 km/h 36.2 km/h 45 % 0 mm 758 W/m2
14:30 -8.1 °C -14.2 °C 34405.1 hPa NE 7.7 km/h 36.2 km/h 48 % 0 mm 872 W/m2
14:35 -7.9 °C -14.3 °C 34405.1 hPa NNE 2.6 km/h 28.5 km/h 47 % 0 mm 853 W/m2
14:40 -7.9 °C -14.5 °C 34405.1 hPa ESE 20.8 km/h 28.5 km/h 46 % 0 mm 849 W/m2
14:45 -7.9 °C -14.3 °C 34405.1 hPa East 12.9 km/h 28.5 km/h 47 % 0 mm 800 W/m2
14:50 -7.8 °C -13.8 °C 34405.1 hPa NE 7.7 km/h 28.5 km/h 49 % 0 mm 810 W/m2
14:55 -7.4 °C -13.7 °C 34395 hPa ENE 10.3 km/h 23.3 km/h 48 % 0 mm 740 W/m2
15:00 -7.7 °C -13.9 °C 34395 hPa NNE 10.3 km/h 25.9 km/h 48 % 0 mm 596 W/m2
15:05 -7.7 °C -13.7 °C 34395 hPa ENE 10.3 km/h 25.9 km/h 49 % 0 mm 722 W/m2
15:10 -7.6 °C -14.3 °C 34395 hPa North 10.3 km/h 20.8 km/h 45 % 0 mm 777 W/m2
15:15 -7.6 °C -13.7 °C 34395 hPa ENE 12.9 km/h 23.3 km/h 49 % 0 mm 761 W/m2
15:20 -7.6 °C -14 °C 34395 hPa ENE 5.1 km/h 23.3 km/h 47 % 0 mm 733 W/m2
15:25 -7.6 °C -13.8 °C 34395 hPa NNE 2.6 km/h 31.1 km/h 48 % 0 mm 731 W/m2
15:30 -7.4 °C -12.8 °C 34395 hPa North 12.9 km/h 31.1 km/h 53 % 0 mm 715 W/m2
15:35 -7.3 °C -13.9 °C 34395 hPa East 18.2 km/h 25.9 km/h 46 % 0 mm 722 W/m2
15:40 -7.3 °C -13.7 °C 34384.8 hPa NNE 15.6 km/h 25.9 km/h 47 % 0 mm 682 W/m2
15:45 -7.4 °C -14.3 °C 34384.8 hPa ENE 20.8 km/h 25.9 km/h 44 % 0 mm 715 W/m2
15:50 -7.4 °C -13.7 °C 34384.8 hPa ENE 18.2 km/h 36.2 km/h 48 % 0 mm 642 W/m2
15:55 -7.4 °C -14 °C 34384.8 hPa NE 12.9 km/h 36.2 km/h 46 % 0 mm 615 W/m2
16:00 -7.6 °C -14.3 °C 34371.3 hPa ENE 25.9 km/h 31.1 km/h 45 % 0 mm 700 W/m2
16:05 -7.6 °C -14.2 °C 34371.3 hPa ENE 7.7 km/h 31.1 km/h 46 % 0 mm 650 W/m2
16:10 -7.6 °C -14.1 °C 34371.3 hPa ENE 10.3 km/h 25.9 km/h 46 % 0 mm 737 W/m2
16:15 -7.6 °C -15.1 °C 34371.3 hPa ENE 5.1 km/h 31.1 km/h 41 % 0 mm 677 W/m2
16:20 -7.4 °C -14.2 °C 34371.3 hPa NNE 20.8 km/h 31.1 km/h 45 % 0 mm 606 W/m2
16:30 -7.6 °C -14.1 °C 34361.1 hPa Calm   25.9 km/h 46 % 0 mm 548 W/m2
16:35 -7.5 °C -14.4 °C 34361.1 hPa NNE 5.1 km/h 25.9 km/h 44 % 0 mm 531 W/m2
16:40 -7.3 °C -14.3 °C 34361.1 hPa ENE 7.7 km/h 28.5 km/h 44 % 0 mm 564 W/m2
16:45 -7.4 °C -13.8 °C 34361.1 hPa East 10.3 km/h 28.5 km/h 47 % 0 mm 512 W/m2
16:50 -7.4 °C -13.8 °C 34361.1 hPa NE 7.7 km/h 23.3 km/h 47 % 0 mm 536 W/m2
16:55 -7.4 °C -14.6 °C 34361.1 hPa North 7.7 km/h 20.8 km/h 43 % 0 mm 589 W/m2
17:00 -7.4 °C -13.8 °C 34361.1 hPa East 10.3 km/h 23.3 km/h 47 % 0 mm 527 W/m2
17:05 -7.4 °C -14.6 °C 34347.6 hPa East 23.3 km/h 23.3 km/h 43 % 0 mm 494 W/m2
17:10 -7.4 °C -14.4 °C 34347.6 hPa NNE 10.3 km/h 25.9 km/h 44 % 0 mm 568 W/m2
17:15 -7.4 °C -14.2 °C 34347.6 hPa ENE 23.3 km/h 25.9 km/h 45 % 0 mm 584 W/m2
17:20 -7.4 °C -13.8 °C 34347.6 hPa North 10.3 km/h 23.3 km/h 47 % 0 mm 554 W/m2
17:25 -7.2 °C -14.3 °C 34347.6 hPa ENE 18.2 km/h 25.9 km/h 43 % 0 mm 541 W/m2
17:30 -7.3 °C -14.3 °C 34347.6 hPa North 10.3 km/h 28.5 km/h 44 % 0 mm 520 W/m2
17:35 -7.3 °C -13.8 °C 34337.4 hPa NE 10.3 km/h 28.5 km/h 47 % 0 mm 501 W/m2
17:40 -7.3 °C -14.4 °C 34337.4 hPa NNE 10.3 km/h 23.3 km/h 43 % 0 mm 475 W/m2
17:45 -7.4 °C -13.8 °C 34337.4 hPa North 10.3 km/h 28.5 km/h 47 % 0 mm 388 W/m2
17:50 -7.5 °C -14.4 °C 34337.4 hPa NE 10.3 km/h 28.5 km/h 44 % 0 mm 301 W/m2
17:55 -7.5 °C -14.3 °C 34337.4 hPa NNE 18.2 km/h 25.9 km/h 45 % 0 mm 480 W/m2
18:00 -7.4 °C -13.8 °C 34337.4 hPa Calm   25.9 km/h 47 % 0 mm 499 W/m2
18:05 -7.4 °C -14.1 °C 34337.4 hPa Calm   23.3 km/h 46 % 0 mm 485 W/m2
18:10 -7.4 °C -14.3 °C 34337.4 hPa NE 2.6 km/h 23.3 km/h 44 % 0 mm 457 W/m2
18:15 -7.4 °C -13.8 °C 34337.4 hPa NNE 12.9 km/h 23.3 km/h 47 % 0 mm 417 W/m2
18:25 -7.4 °C -13.8 °C 34337.4 hPa Calm   23.3 km/h 47 % 0 mm 396 W/m2
18:30 -7.3 °C -13.9 °C 34337.4 hPa North 20.8 km/h 25.9 km/h 46 % 0 mm 360 W/m2
18:35 -7.7 °C -13.4 °C 34337.4 hPa WNW 5.1 km/h 25.9 km/h 51 % 0 mm 348 W/m2
18:40 -8 °C -12.7 °C 34327.3 hPa WNW 7.7 km/h 25.9 km/h 58 % 0 mm 334 W/m2
18:45 -8.2 °C -12.8 °C 34327.3 hPa WSW 2.6 km/h 18.2 km/h 58 % 0 mm 302 W/m2
18:50 -8.4 °C -12.6 °C 34327.3 hPa West 23.3 km/h 23.3 km/h 61 % 0 mm 285 W/m2
18:55 -8.7 °C -12.3 °C 34327.3 hPa WNW 15.6 km/h 23.3 km/h 65 % 0 mm 274 W/m2
19:00 -8.8 °C -12.3 °C 34327.3 hPa WNW 15.6 km/h 25.9 km/h 66 % 0 mm 262 W/m2
19:05 -9.1 °C -12.2 °C 34327.3 hPa WSW 5.1 km/h 25.9 km/h 69 % 0 mm 244 W/m2
19:10 -9 °C -12.2 °C 34327.3 hPa West 7.7 km/h 20.8 km/h 69 % 0 mm 234 W/m2
19:15 -9 °C -12.2 °C 34327.3 hPa West 7.7 km/h 18.2 km/h 69 % 0 mm 146 W/m2
19:20 -9.1 °C -12.3 °C 34327.3 hPa WSW 15.6 km/h 18.2 km/h 69 % 0 mm 77 W/m2
19:25 -9.1 °C -12.3 °C 34327.3 hPa West 7.7 km/h 18.2 km/h 69 % 0 mm 104 W/m2
19:30 -9.1 °C -12.4 °C 34327.3 hPa WSW 10.3 km/h 18.2 km/h 68 % 0 mm 130 W/m2
19:35 -9.2 °C -12.5 °C 34313.7 hPa WSW 7.7 km/h 15.6 km/h 68 % 0 mm 97 W/m2
19:40 -9.3 °C -12.4 °C 34313.7 hPa West 10.3 km/h 15.6 km/h 69 % 0 mm 67 W/m2
19:45 -9.4 °C -12.4 °C 34313.7 hPa West 10.3 km/h 15.6 km/h 70 % 0 mm 97 W/m2
19:50 -9.4 °C -12.3 °C 34313.7 hPa WNW 12.9 km/h 25.9 km/h 71 % 0 mm 97 W/m2
19:55 -9.5 °C -12.5 °C 34313.7 hPa SW 7.7 km/h 25.9 km/h 70 % 0 mm 137 W/m2
20:00 -9.4 °C -12.4 °C 34313.7 hPa West 7.7 km/h 20.8 km/h 70 % 0 mm 128 W/m2
20:10 -9.3 °C -12.6 °C 34313.7 hPa WNW 5.1 km/h 23.3 km/h 68 % 0 mm 70 W/m2
20:15 -9.4 °C -12.6 °C 34313.7 hPa NW 5.1 km/h 23.3 km/h 69 % 0 mm 56 W/m2
20:20 -9.6 °C -12.7 °C 34313.7 hPa WNW 5.1 km/h 18.2 km/h 69 % 0 mm 51 W/m2
20:30 -9.7 °C -12.7 °C 34313.7 hPa WNW 2.6 km/h 15.6 km/h 70 % 0 mm 35 W/m2
20:35 -9.9 °C -12.9 °C 34313.7 hPa NNE 10.3 km/h 15.6 km/h 70 % 0 mm 26 W/m2
20:40 -10.1 °C -13.1 °C 34313.7 hPa NW 7.7 km/h 25.9 km/h 70 % 0 mm 25 W/m2
20:45 -10.2 °C -13.3 °C 34313.7 hPa NNW 10.3 km/h 25.9 km/h 69 % 0 mm 21 W/m2
20:50 -10.3 °C -13.5 °C 34313.7 hPa Calm   23.3 km/h 68 % 0 mm 18 W/m2
20:55 -10.5 °C -13.4 °C 34313.7 hPa NW 2.6 km/h 18.2 km/h 70 % 0 mm 12 W/m2
21:00 -10.6 °C -13.4 °C 34313.7 hPa WNW 2.6 km/h 18.2 km/h 71 % 0 mm 9 W/m2
21:05 -10.7 °C -13.4 °C 34313.7 hPa WNW 7.7 km/h 18.2 km/h 72 % 0 mm 5 W/m2
21:10 -10.8 °C -13.3 °C 34313.7 hPa Calm   15.6 km/h 74 % 0 mm 0 W/m2
21:15 -10.9 °C -13.4 °C 34313.7 hPa NW 5.1 km/h 15.6 km/h 74 % 0 mm 0 W/m2
21:20 -11.1 °C -13.4 °C 34313.7 hPa NW 5.1 km/h 20.8 km/h 75 % 0 mm 0 W/m2
21:25 -11.1 °C -13.4 °C 34313.7 hPa Calm   20.8 km/h 76 % 0 mm 0 W/m2
21:30 -11.3 °C -13.6 °C 34313.7 hPa NW 2.6 km/h 18.2 km/h 76 % 0 mm 0 W/m2
21:35 -11.3 °C -13.5 °C 34313.7 hPa Calm   18.2 km/h 77 % 0 mm 0 W/m2
21:40 -11.4 °C -13.5 °C 34313.7 hPa North 2.6 km/h 12.9 km/h 78 % 0 mm 0 W/m2
21:45 -11.5 °C -13.4 °C 34313.7 hPa NNW 2.6 km/h 12.9 km/h 79 % 0 mm 0 W/m2
21:50 -11.6 °C -13.6 °C 34313.7 hPa Calm   12.9 km/h 79 % 0 mm 0 W/m2
21:55 -11.7 °C -13.4 °C 34313.7 hPa Calm   15.6 km/h 81 % 0 mm 0 W/m2
22:00 -11.8 °C -13.6 °C 34313.7 hPa NNW 5.1 km/h 18.2 km/h 81 % 0 mm 0 W/m2
22:05 -11.9 °C -13.6 °C 34327.3 hPa NNW 7.7 km/h 18.2 km/h 82 % 0 mm 0 W/m2
22:10 -12 °C -13.5 °C 34327.3 hPa NNW 2.6 km/h 10.3 km/h 83 % 0 mm 0 W/m2
22:15 -12.1 °C -13.6 °C 34327.3 hPa North 7.7 km/h 10.3 km/h 83 % 0 mm 0 W/m2
22:20 -12.1 °C -13.6 °C 34327.3 hPa Calm   10.3 km/h 84 % 0 mm 0 W/m2
22:25 -12.1 °C -13.6 °C 34327.3 hPa Calm   10.3 km/h 84 % 0 mm 0 W/m2
22:30 -12.1 °C -13.4 °C 34327.3 hPa NW 5.1 km/h 7.7 km/h 85 % 0 mm 0 W/m2
22:35 -12.2 °C -13.6 °C 34327.3 hPa Calm   10.3 km/h 85 % 0 mm 0 W/m2
22:40 -12.3 °C -13.5 °C 34327.3 hPa NNW 7.7 km/h 10.3 km/h 86 % 0 mm 0 W/m2
22:45 -12.3 °C -13.5 °C 34327.3 hPa North 2.6 km/h 15.6 km/h 86 % 0 mm 0 W/m2
22:50 -12.3 °C -13.5 °C 34327.3 hPa NNE 10.3 km/h 15.6 km/h 86 % 0 mm 0 W/m2
22:55 -12.3 °C -13.5 °C 34327.3 hPa North 7.7 km/h 15.6 km/h 86 % 0 mm 0 W/m2
23:00 -12.2 °C -13.6 °C 34327.3 hPa NNE 12.9 km/h 18.2 km/h 84 % 0 mm 0 W/m2
23:05 -12.1 °C -13.7 °C 34327.3 hPa North 5.1 km/h 18.2 km/h 82 % 0 mm 0 W/m2
23:10 -12.2 °C -13.8 °C 34327.3 hPa North 2.6 km/h 15.6 km/h 82 % 0 mm 0 W/m2
23:15 -12.3 °C -13.9 °C 34327.3 hPa Calm   15.6 km/h 82 % 0 mm 0 W/m2
23:20 -12.2 °C -13.9 °C 34327.3 hPa North 15.6 km/h 15.6 km/h 81 % 0 mm 0 W/m2
23:25 -12.2 °C -13.9 °C 34327.3 hPa NNW 12.9 km/h 15.6 km/h 81 % 0 mm 0 W/m2
23:30 -12.2 °C -14 °C 34327.3 hPa North 2.6 km/h 18.2 km/h 80 % 0 mm 0 W/m2
23:35 -12.2 °C -14.1 °C 34327.3 hPa North 12.9 km/h 18.2 km/h 80 % 0 mm 0 W/m2
23:40 -12.2 °C -14.1 °C 34327.3 hPa Calm   18.2 km/h 79 % 0 mm 0 W/m2
23:45 -12.2 °C -14.1 °C 34327.3 hPa NE 5.1 km/h 18.2 km/h 79 % 0 mm 0 W/m2
23:50 -12.2 °C -14.3 °C 34327.3 hPa NE 2.6 km/h 15.6 km/h 78 % 0 mm 0 W/m2
23:55 -12.2 °C -14.3 °C 34327.3 hPa North 7.7 km/h 10.3 km/h 78 % 0 mm 0 W/m2
Avec l'autorisation de Weather Underground - 1.75 mb